Location: B�rgermoos
(47.6500°N, 9.0667°E)
Time: 09:35:50
(UTC+00:00)

A-11 Canister half - Pass Details

Date: 07 August 2021
Orbit: 1526 x 1683 km, 47.3° (Epoch: 20 September)

Event Time Altitude Azimuth Distance (km) Brightness Sun altitude
Rises 16:16:55 0° 291° (WNW) 4,903 12.7 24.1°
Reaches altitude 10° 16:20:44 10° 280° (W) 3,892 12.9 23.4°
Maximum altitude 16:28:25 27° 229° (SW) 2,753 11.3 22.1°
Drops below altitude 10° 16:35:55 10° 177° (S) 3,782 11.1 20.9°
Sets 16:39:35 0° 165° (SSE) 4,739 11.4 20.3°
